DMSP 5D-2 F13 DEB, 40410

Orbit data source: Space-Track

DMSP 5D-2 F13 DEB, 40410 is space debris in SSO originally from a launch on Fri, 24 Mar 1995 UTC launched from the Air Force Western Test Range (AFWTR). Debris objects in space refer to the collection of defunct objects orbiting the Earth. Examples of debris include non-operational satellites, rocket bodies, and fragments generated from explosions, collisions, or faulty payload assembly.

Loading next visibility...
Identifier
40410, 1995-015X
Orbit
SSO
Country
Flag of USUS
Related business
Manufacturer
Unknown
Mission
Spacecraft
Bus & Motor
Unknown
Mass
Unknown
Launch date (UTC)
1995-03-24 (31 years ago)
Launch vehicle
Unknown
Launch site
Air Force Western Test Range (AFWTR)
Object type
Payload
Rocket body
Debris
Shape & HBR
Unknown shape, 0.1 m
Radar Cross Section
Small (<0.1 m²)

Expand to show TLE details & history
Last TLE update: 1 day ago

TLE from 1 day ago
0 DMSP 5D-2 F13 DEB
1 40410U 95015X   26036.53142381  .00003523  00000-0  15115-2 0  9991
2 40410  98.8080  62.0914 0016652 244.4183 115.5276 14.25345198565917
Epoch: 2026-02-05T12:45Z
TLE epoch observation values (Epoch: 2026-02-05T12:45:15.017Z)
Latitude
0.00007°
Longitude
95.09651°
Altitude
815.424 km
Speed
7.443 km/s
True Right ascension
04h 08m 21s
True Declination
0° 00' 00"
Sunlit
Object was in daylight at epoch
Visualization orbit readout
Latitude
Unknown
Longitude
Unknown
Altitude
Unknown
Speed
Unknown
Apparent Right ascension
Unknown
Apparent Declination
Unknown
Sunlit
N/A
Visualization observer readout
Local Sidereal Time
20:38:31
Azimuth
Unknown
Elevation
Unknown
Doppler factor
Unknown
Orbital elements
Apogee altitude
816.449 km
Perigee altitude
792.528 km
Semi-major axis
7,182.625 km
Eccentricity
0.00167
Inclination
98.808°
RAAN
62.0914°
Arg. of periapsis
244.4183°
True anomaly
115.69964°
Mean anomaly
115.5276°
Eccentric anomaly
115.61363°
Mean motion
3.56548 °/min
Orbital period
100.97 mins
BSTAR
0.0015115
Loading maneuver chart data...
Computing Atmospheric mass density...

Documentation

Showing up to 5 results
|